Location: Oberkirch
(48.5323°N, 8.0787°E)
Time: 17:19:23
(UTC+00:00)

SL-24 R/B - RUBIN 2 - Pass Details

Date: 17 February 2026
Orbit: 603 x 984 km, 64.6° (Epoch: 8 March)

Event Time Altitude Azimuth Distance (km) Brightness Sun altitude
Exits shadow 05:14:33 - 324° (NW) 2,200 6.0 -13.4°
Reaches altitude 10° 05:15:58 10° 340° (NNW) 2,000 5.9 -13.2°
Maximum altitude 05:16:54 11° 352° (N) 1,955 6.0 -13.0°
Drops below altitude 10° 05:17:49 10° 4° (N) 1,981 6.2 -12.9°
Sets 05:22:08 0° 45° (NE) 2,863 7.6 -12.2°
